TimeCST,TemperatureF,Dew PointF,Humidity,Sea Level PressureIn,VisibilityMPH,Wind Direction,Wind SpeedMPH,Gust SpeedMPH,PrecipitationIn,Events,Conditions,WindDirDegrees,DateUTC
12:56 AM,42.1,28.0,58,30.13,10.0,SW,6.9,-,N/A,,Clear,220,2012-11-15 06:56:00
1:56 AM,37.0,28.9,73,30.14,10.0,SW,4.6,-,N/A,,Clear,220,2012-11-15 07:56:00
2:56 AM,35.1,28.9,78,30.17,10.0,West,6.9,-,N/A,,Clear,270,2012-11-15 08:56:00
3:56 AM,32.0,28.9,88,30.18,10.0,Calm,Calm,-,N/A,,Clear,0,2012-11-15 09:56:00
4:56 AM,28.9,27.0,92,30.20,10.0,West,4.6,-,N/A,,Clear,280,2012-11-15 10:56:00
5:56 AM,28.9,26.1,89,30.23,10.0,WNW,6.9,-,N/A,,Clear,290,2012-11-15 11:56:00
6:56 AM,30.9,28.0,89,30.26,10.0,Calm,Calm,-,N/A,,Clear,0,2012-11-15 12:56:00
7:56 AM,32.0,28.0,85,30.29,10.0,NW,5.8,-,N/A,,Clear,310,2012-11-15 13:56:00
8:56 AM,37.0,30.0,76,30.32,10.0,NW,3.5,-,N/A,,Clear,320,2012-11-15 14:56:00
9:56 AM,41.0,30.9,67,30.34,10.0,North,11.5,-,N/A,,Clear,360,2012-11-15 15:56:00
10:56 AM,44.1,30.9,60,30.36,10.0,NNW,11.5,-,N/A,,Clear,340,2012-11-15 16:56:00
11:56 AM,46.0,30.0,54,30.36,10.0,NNW,10.4,-,N/A,,Clear,330,2012-11-15 17:56:00
12:56 PM,48.0,30.9,52,30.36,10.0,North,9.2,-,N/A,,Clear,350,2012-11-15 18:56:00
1:56 PM,48.9,30.0,48,30.37,10.0,North,10.4,-,N/A,,Partly Cloudy,350,2012-11-15 19:56:00
2:56 PM,48.9,30.0,48,30.38,10.0,North,8.1,-,N/A,,Clear,10,2012-11-15 20:56:00
3:56 PM,46.9,28.9,50,30.40,10.0,North,10.4,-,N/A,,Clear,10,2012-11-15 21:56:00
4:56 PM,41.0,25.0,53,30.43,10.0,NNE,5.8,-,N/A,,Clear,20,2012-11-15 22:56:00
5:56 PM,35.1,21.9,59,30.46,10.0,NNE,6.9,-,N/A,,Clear,30,2012-11-15 23:56:00
6:56 PM,30.9,21.0,67,30.48,10.0,NNE,5.8,-,N/A,,Clear,20,2012-11-16 00:56:00
7:56 PM,27.0,19.0,72,30.49,10.0,NNE,4.6,-,N/A,,Clear,30,2012-11-16 01:56:00
8:56 PM,27.0,18.0,69,30.50,10.0,NNE,4.6,-,N/A,,Clear,30,2012-11-16 02:56:00
9:56 PM,23.0,18.0,81,30.51,10.0,Calm,Calm,-,N/A,,Clear,0,2012-11-16 03:56:00
10:56 PM,19.9,15.1,81,30.51,10.0,Calm,Calm,-,N/A,,Clear,0,2012-11-16 04:56:00
11:56 PM,19.9,16.0,85,30.52,10.0,ENE,4.6,-,N/A,,Clear,60,2012-11-16 05:56:00